Content
SEND FEEDBACK

Daily
Averages
Monthly
Summary
United States of America

BARTON HILLS, MICHIGAN


Home > North America > United States > Michigan
Elevation: 899 feet     Latitude: 42 18N     Longitude: 083 43W

WEATHER
 
SELECT A DAY
Number of Records: 202,962;   Date Range: 1/1/95 - 7/7/14
 
SHARE

PRINT THIS DATA

[ ← Previous Day ]
WEATHER ALMANAC - JULY 3, 2013
[ Next Day → ]
[ °C ]   °F
Weather ElementAverageHighLow
Temperature69.7 °F82 °F (2:53 pm)59 °F (1:01 am)
Dewpoint63.5 °F68 °F (11:53 am)57.2 °F (1:01 am)
Humidity82.1 %100 % (9:19 am)54 % (5:53 pm)
Barometer30.08 in30.12 in (11:22 am)30.04 in (3:53 am)
Wind Speed3.6 mph10.4 mph (1:53 pm)
Weather ElementAverage
Visibility6.7 mi
Wind DirectionE (85 °)

Weather ElementTotal
Precipitation---
Cooling Degree Days5.5 (Base 65)
Growing Degree Days20.5 (Base 50)
Averaged from 38 records on July 3, 2013
WEATHER CONDITIONS BREAKOUT
WIND DIRECTION BREAKOUT
WEATHER BY HOUR - JULY 3, 2013
[ °C ]   °F
Local TimeTemperatureDewpointHumidityBarometerVisibilityWind DirectionWind SpeedGust SpeedPrecipitationEventsConditions
1:01 AM59.0 °F57.2 °F94 %30.08 in7.0 miNE (40°)3.5 mphMostly Cloudy
1:22 AM62.6 °F60.8 °F94 %30.08 in7.0 miEast (80°)3.5 mphOvercast
1:53 AM64.0 °F61.0 °F90 %30.06 in7.0 miNE (50°)4.6 mphOvercast
2:36 AM62.6 °F60.8 °F94 %30.06 in7.0 miNE (50°)3.5 mphScattered Clouds
2:53 AM63.0 °F61.0 °F93 %30.05 in7.0 miCalmPartly Cloudy
3:53 AM62.1 °F60.1 °F93 %30.04 in6.0 miNE (50°)3.5 mphPartly Cloudy
4:53 AM61.0 °F59.0 °F93 %30.04 in6.0 miCalmClear
5:53 AM61.0 °F57.9 °F90 %30.05 in7.0 miCalmClear
6:26 AM60.8 °F57.2 °F88 %30.07 in6.0 miCalmScattered Clouds
6:53 AM61.0 °F57.9 °F90 %30.07 in6.0 miCalmClear
7:21 AM62.6 °F59.0 °F88 %30.08 in6.0 miCalmPartly Cloudy
7:34 AM62.6 °F60.8 °F94 %30.08 in6.0 miCalmMostly Cloudy
7:53 AM63.0 °F60.1 °F90 %30.08 in6.0 miCalmOvercast
8:53 AM64.9 °F63.0 °F93 %30.09 in4.0 miEast (100°)3.5 mphOvercast
9:03 AM64.4 °F62.6 °F94 %30.10 in2.5 miCalmOvercast
9:19 AM64.4 °F64.4 °F100 %30.11 in1.8 miCalmOvercast
9:41 AM66.2 °F64.4 °F94 %30.11 in1.0 miSE (130°)3.5 mphOvercast
9:49 AM66.2 °F64.4 °F94 %30.11 in0.8 miCalmOvercast
9:53 AM66.9 °F64.9 °F93 %30.10 in1.0 miCalmOvercast
10:51 AM69.8 °F66.2 °F88 %30.11 in2.5 miVariable4.6 mphOvercast
10:53 AM70.0 °F66.9 °F90 %30.11 in2.5 miSouth (190°)4.6 mphOvercast
11:22 AM73.4 °F66.2 °F78 %30.12 in5.0 miSSW (210°)5.8 mphHaze
11:34 AM73.4 °F66.2 °F78 %30.12 in6.0 miSouth (190°)4.6 mphHaze
11:53 AM75.9 °F68.0 °F76 %30.11 in9.0 miVariable5.8 mphScattered Clouds
12:16 PM77.0 °F66.2 °F69 %30.11 in10.0 miVariable5.8 mphMostly Cloudy
12:35 PM78.8 °F66.2 °F65 %30.11 in10.0 miSSW (200°)9.2 mphScattered Clouds
12:53 PM79.0 °F66.0 °F64 %30.10 in10.0 miSouth (180°)9.2 mphPartly Cloudy
1:53 PM80.1 °F66.0 °F62 %30.09 in10.0 miSouth (180°)10.4 mphMostly Cloudy
2:53 PM82.0 °F66.0 °F58 %30.08 in10.0 miSouth (190°)8.1 mphPartly Cloudy
3:53 PM81.0 °F64.9 °F58 %30.07 in10.0 miSSW (210°)5.8 mphScattered Clouds
4:53 PM80.1 °F66.0 °F62 %30.06 in10.0 miSSW (210°)5.8 mphPartly Cloudy
5:53 PM82.0 °F64.0 °F54 %30.05 in10.0 miSouth (180°)9.2 mphPartly Cloudy
6:53 PM79.0 °F63.0 °F58 %30.06 in10.0 miSouth (180°)5.8 mphClear
7:53 PM77.0 °F64.9 °F66 %30.06 in10.0 miSouth (180°)4.6 mphClear
8:53 PM75.0 °F66.0 °F73 %30.06 in10.0 miSE (140°)4.6 mphClear
9:53 PM73.0 °F68.0 °F84 %30.08 in9.0 miCalmMostly Cloudy
10:53 PM73.0 °F68.0 °F84 %30.09 in8.0 miSSE (150°)4.6 mphOvercast
11:53 PM70.0 °F68.0 °F93 %30.08 in6.0 miSE (140°)3.5 mphMostly Cloudy
Hourly data recorded from KARB, located miles away from Barton Hills, Michigan







STORIES FROM OUR PARTNERS